Gulfport, MS

1:14 AM CDT on July 26, 2017 (GMT -0500)
Gulfport-Biloxi Regional

Weather History for KGPT - September, 2012

Change the Weather History Date:

Friday, September 28, 2012

  Actual Average Record
Temperature  
Mean Temperature 78 °F -  
Max Temperature 86 °F 85 °F 93 °F (1953)
Min Temperature 71 °F 64 °F 51 °F (1975)
Cooling Degree Days 12    
Growing Degree Days 28 (Base 50)    
Moisture  
Dew Point 71 °F    
Average Humidity 84    
Maximum Humidity 97    
Minimum Humidity 65    
Precipitation  
Precipitation 0.24 in - - ()
Sea Level Pressure  
Sea Level Pressure 30.03 in    
Wind  
Wind Speed 2 mph (ESE)    
Max Wind Speed 10 mph    
Max Gust Speed -    
Visibility 8 miles    
Events Rain    
Averages and records for this station are not official NWS values.
T = Trace of Precipitation, MM = Missing Value Source: NWS Daily Summary

Daily Weather History Graph

Daily Weather History Graph

Search for Another Location

Airport or City:

Trip Planner

Search our weather history database for the weather conditions in past years. The results will help you decide how hot, cold, wet, or windy it might be!

Date:

Astronomy

Sep. 28, 2012 Rise Set
Actual Time 6:48 AM CDT 6:44 PM CDT
Civil Twilight 6:24 AM CDT 7:08 PM CDT
Nautical Twilight 5:56 AM CDT 7:36 PM CDT
Astronomical Twilight 5:28 AM CDT 8:04 PM CDT
Moon 5:45 PM CDT (9/28) 5:22 AM CDT (9/28)
Length of Visible Light 12h 44m
Length of Day
11h 56m
Waxing Gibbous, 98% of the Moon is Illuminated
Sep 28
Waxing Gibbous
Sep 29
Full
Oct 8
Last Quarter
Oct 15
New
Oct 21
First Quarter

Hourly Weather History & Observations

Time (CDT) Temp. Heat Index Dew Point Humidity Pressure Visibility Wind Dir Wind Speed Gust Speed Precip Events Conditions
12:53 AM 73.0 °F - 70.0 °F 90% 30.07 in 9.0 mi Calm Calm - N/A   Clear
1:53 AM 73.0 °F - 70.0 °F 90% 30.05 in 10.0 mi Calm Calm - N/A   Clear
2:53 AM 71.1 °F - 70.0 °F 96% 30.04 in 8.0 mi Calm Calm - N/A   Partly Cloudy
3:53 AM 71.1 °F - 69.1 °F 93% 30.04 in 8.0 mi Calm Calm - N/A   Clear
4:53 AM 72.0 °F - 69.1 °F 91% 30.05 in 7.0 mi Calm Calm - N/A   Partly Cloudy
5:53 AM 71.1 °F - 69.1 °F 93% 30.06 in 7.0 mi Calm Calm - N/A   Clear
6:53 AM 71.1 °F - 69.1 °F 93% 30.06 in 7.0 mi Calm Calm - N/A   Clear
7:53 AM 73.9 °F - 71.1 °F 91% 30.07 in 8.0 mi Calm Calm - N/A   Clear
8:53 AM 78.1 °F - 72.0 °F 81% 30.07 in 10.0 mi NE 4.6 mph - N/A   Clear
9:53 AM 82.0 °F 87.4 °F 73.0 °F 74% 30.07 in 10.0 mi NNE 4.6 mph - N/A   Partly Cloudy
10:53 AM 82.9 °F 87.5 °F 71.1 °F 67% 30.08 in 10.0 mi Variable 4.6 mph - N/A   Scattered Clouds
11:53 AM 84.0 °F 89.0 °F 71.1 °F 65% 30.07 in 10.0 mi SE 8.1 mph - N/A   Scattered Clouds
12:53 PM 84.0 °F 89.0 °F 71.1 °F 65% 30.04 in 10.0 mi SE 10.4 mph - N/A   Scattered Clouds
1:53 PM 84.9 °F 90.7 °F 72.0 °F 65% 30.02 in 10.0 mi South 8.1 mph - N/A   Scattered Clouds
2:53 PM 82.9 °F 88.8 °F 73.0 °F 72% 29.99 in 10.0 mi SE 10.4 mph - N/A   Scattered Clouds
3:53 PM 82.0 °F 86.7 °F 72.0 °F 71% 29.99 in 10.0 mi SSE 9.2 mph - N/A   Scattered Clouds
4:53 PM 81.0 °F 85.2 °F 72.0 °F 74% 29.99 in 10.0 mi SE 6.9 mph - N/A   Scattered Clouds
5:53 PM 77.0 °F - 71.1 °F 82% 29.99 in 10.0 mi NNE 4.6 mph - 0.00 in Rain Light Rain
6:53 PM 75.0 °F - 73.0 °F 94% 30.00 in 5.0 mi NW 5.8 mph - 0.08 in Rain Light Rain
7:53 PM 73.9 °F - 73.0 °F 97% 30.00 in 5.0 mi Calm Calm - 0.14 in Rain Rain
8:53 PM 73.9 °F - 73.0 °F 97% 30.01 in 7.0 mi Calm Calm - 0.02 in   Overcast
9:53 PM 75.0 °F - 73.9 °F 96% 30.01 in 10.0 mi Calm Calm - N/A   Clear
10:53 PM 75.0 °F - 73.9 °F 96% 30.00 in 9.0 mi Calm Calm - N/A   Clear
11:53 PM 73.9 °F - 72.0 °F 93% 30.00 in 5.0 mi Calm Calm - N/A   Clear